Regional Weather Roundup
Issued by NWS

Home | Current Version | Previous Version | Graphics & Text | Print | Product List | Glossary On
Versions: 1 2 3 4 5 6 7 8 9 10 11 12 13 14 15 16 17 18 19 20 21 22 23 24 25 26 27 28 29 30 31 32 33 34 35 36 37 38 39 40 41 42 43 44 45 46 47 48 49 50
000
ASUS43 KLMK 280102
RWRKY
KENTUCKY REGIONAL WEATHER ROUNDUP
NATIONAL WEATHER SERVICE LOUISVILLE KY
900 PM EDT FRI MAR 27 2015

NOTE "FAIR" INDICATES FEW OR NO CLOUDS BELOW 12,000 FEET
WITH NO SIGNIFICANT WEATHER AND/OR OBSTRUCTIONS TO VISIBILITY.

KYZ001>023-026-027-061>063-070>075-280200-
WESTERN AND SOUTH CENTRAL KENTUCKY

CITY           SKY/WX    TMP DP  RH WIND       PRES   REMARKS
PADUCAH        CLOUDY    37  19  48 N9        30.16R WCI  30
HENDERSON      MOCLDY    36  18  48 N8G20     30.14R WCI  29
OWENSBORO      CLOUDY    36  19  50 N9        30.14R WCI  29
HOPKINSVILLE   CLOUDY    37  25  63 NW8       30.12R WCI  30
BOWLING GREEN  CLOUDY    38  21  50 NW8       30.10R WCI  32
GLASGOW        NOT AVBL
$$

KYZ024-025-028>034-038-045-046-053-280200-
NORTH CENTRAL KENTUCKY

CITY           SKY/WX    TMP DP  RH WIND       PRES   REMARKS
LOUISVILLE/SDF CLOUDY    35  20  54 N16       30.10R WCI  25
LOUISVILLE/LOU CLOUDY    35  18  49 N8        30.10R WCI  29
FORT KNOX      CLOUDY    34  22  60 NW8       30.07R WCI  27
$$

KYZ035>037-039>044-047>052-055>060-089>105-280200-
NORTHEAST KENTUCKY

CITY           SKY/WX    TMP DP  RH WIND       PRES   REMARKS
LEXINGTON      CLOUDY    32  19  58 NW12      30.06R WCI  23
COVINGTON      CLOUDY    30  16  56 NW10      30.06R WCI  21
FRANKFORT      CLOUDY    32  19  58 N6        30.06R WCI  26
$$

KYZ054-064>069-076>088-106>120-280200-
SOUTHEAST KENTUCKY

CITY           SKY/WX    TMP DP  RH WIND       PRES   REMARKS
JACKSON        CLOUDY    33  25  72 VRB7      29.98R WCI  27
LONDON         CLOUDY    36  22  56 NW8       30.00R WCI  30
SOMERSET       NOT AVBL
MIDDLESBORO    CLOUDY    38  29  71 N6        29.98R WCI  33
MONTICELLO     FLURRIES  36  27  70 N14       30.07R WCI  27
$$



USA.gov is the U.S. government's official web portal to all federal, state and local government web resources and services.